Zurück zum Katalog

SUXING-1 01

AktivWissenschaftSSO
NORAD 60749·PAYLOAD·🇨🇳 China
Dieser Satellitenname wurde noch nicht durch offizielle Quellen bestätigt.

Gestartet Aug 29, 2024 von Yellow Sea Launch Area

Loading…

Nächste Überflüge (nächste 24 Stunden)

TLE

AktuellSource: Space-Track

Epoche: Sep 14, 2026, 14:14 UTC

1 60749U 24153E   26257.59313977  .00010961  00000-0  39282-3 0  9991
2 60749  97.6831  37.5737 0000371 263.2516  96.8681 15.28918032113484

Verfolge SUXING-1 01 in Echtzeit mit AllMySat

Download on the App Store